| time (UTC) | temp F | wind direction | speed MPH | gust MPH | rain 1hr in | rain 24hr in | rain mn in | humidity % | barometer mb |
| 20260507115743 | 51 | 360 | 6.0 | 12.0 | 0.00 | 0.00 | 0.00 | 10 | 1027.1 |
| 20260507112742 | 51 | 360 | 8.0 | 12.0 | 0.00 | 0.00 | 0.00 | 10 | 1027.4 |
| 20260507105743 | 52 | 315 | 6.0 | 10.0 | 0.00 | 0.00 | 0.00 | 10 | 1027.4 |
| 20260507102744 | 53 | 360 | 4.0 | 8.0 | 0.00 | 0.00 | 0.00 | 10 | 1027.1 |
| 20260507095742 | 53 | 360 | 3.0 | 7.0 | 0.00 | 0.00 | 0.00 | 10 | 1027.4 |
| 20260507082743 | 53 | 360 | 2.0 | 6.0 | 0.00 | 0.00 | 0.00 | 10 | 1027.1 |
| 20260507072746 | 51 | 360 | 3.0 | 5.0 | 0.00 | 0.00 | 0.00 | 10 | 1027.0 |
| 20260507065744 | 51 | 45 | 1.0 | 6.0 | 0.00 | 0.00 | 0.00 | 10 | 1027.0 |
| 20260507062746 | 48 | 45 | 2.0 | 6.0 | 0.00 | 0.00 | 0.00 | 17 | 1026.9 |
| 20260507055743 | 44 | 90 | 1.0 | 6.0 | 0.00 | 0.00 | 0.00 | 55 | 1026.9 |
| 20260507052745 | 43 | 90 | 1.0 | 6.0 | 0.00 | 0.00 | 0.00 | 66 | 1026.8 |
| 20260507045742 | 43 | 90 | 1.0 | 6.0 | 0.00 | 0.00 | 0.00 | 81 | 1026.6 |
| 20260507035743 | 40 | 360 | 3.0 | 6.0 | 0.00 | 0.00 | 0.00 | 99 | 1026.5 |
| 20260507032743 | 40 | 360 | 3.0 | 5.0 | 0.00 | 0.00 | 0.00 | 99 | 1026.3 |
| 20260507022742 | 40 | 45 | 1.0 | 4.0 | 0.00 | 0.00 | 0.00 | 93 | 1026.0 |
| 20260507015744 | 40 | 45 | 0.0 | 3.0 | 0.00 | 0.00 | 0.00 | 92 | 1026.0 |
| 20260507012743 | 41 | 360 | 2.0 | 7.0 | 0.00 | 0.00 | 0.00 | 81 | 1026.0 |
| 20260507005743 | 41 | 45 | 2.0 | 6.0 | 0.00 | 0.00 | 0.00 | 73 | 1026.0 |
| 20260507002743 | 41 | 45 | 2.0 | 9.0 | 0.00 | 0.00 | 0.00 | 66 | 1025.8 |
| 20260506235741 | 41 | 360 | 2.0 | 9.0 | 0.00 | 0.00 | 0.00 | 66 | 1025.9 |
| 20260506232743 | 42 | 360 | 6.0 | 11.0 | 0.00 | 0.00 | 0.00 | 70 | 1025.5 |
| 20260506222743 | 42 | 292 | 6.0 | 9.0 | 0.00 | 0.00 | 0.00 | 30 | 1025.5 |
| 20260506215744 | 42 | 360 | 4.0 | 9.0 | 0.00 | 0.00 | 0.00 | 13 | 1025.5 |
| 20260506205743 | 42 | 360 | 5.0 | 12.0 | 0.00 | 0.00 | 0.00 | 13 | 1025.4 |
| 20260506202742 | 43 | 360 | 10.0 | 17.0 | 0.00 | 0.00 | 0.00 | 13 | 1025.1 |
| 20260506195743 | 43 | 360 | 10.0 | 17.0 | 0.00 | 0.00 | 0.00 | 13 | 1025.1 |
| 20260506192744 | 43 | 315 | 10.0 | 20.0 | 0.00 | 0.00 | 0.00 | 13 | 1025.3 |
| 20260506185746 | 44 | 360 | 12.0 | 18.0 | 0.00 | 0.00 | 0.00 | 13 | 1025.0 |
| 20260506182741 | 45 | 360 | 11.0 | 19.0 | 0.00 | 0.00 | 0.00 | 13 | 1024.8 |
| 20260506175744 | 46 | 360 | 12.0 | 22.0 | 0.00 | 0.00 | 0.00 | 13 | 1024.6 |
| 20260506172745 | 46 | 292 | 15.0 | 20.0 | 0.00 | 0.00 | 0.00 | 13 | 1024.5 |
| 20260506165743 | 46 | 315 | 12.0 | 23.0 | 0.00 | 0.00 | 0.00 | 13 | 1024.5 |
| 20260506162748 | 47 | 360 | 15.0 | 19.0 | 0.00 | 0.00 | 0.00 | 13 | 1024.4 |
| 20260506155746 | 48 | 270 | 12.0 | 20.0 | 0.00 | 0.00 | 0.00 | 13 | 1024.5 |
| 20260506152744 | 49 | 360 | 10.0 | 22.0 | 0.00 | 0.00 | 0.00 | 13 | 1024.5 |
| 20260506145743 | 48 | 360 | 11.0 | 19.0 | 0.00 | 0.00 | 0.00 | 13 | 1024.8 |
| 20260506142743 | 48 | 360 | 10.0 | 15.0 | 0.00 | 0.00 | 0.00 | 13 | 1024.9 |
| 20260506135745 | 49 | 360 | 8.0 | 14.0 | 0.00 | 0.00 | 0.00 | 13 | 1024.8 |
| 20260506132746 | 50 | 270 | 6.0 | 12.0 | 0.00 | 0.00 | 0.00 | 13 | 1024.9 |
| 20260506125745 | 48 | 360 | 9.0 | 12.0 | 0.00 | 0.00 | 0.00 | 13 | 1025.0 |